| time (UTC) | temp F | wind direction | speed MPH | gust MPH | rain 1hr in | rain 24hr in | rain mn in | humidity % | barometer mb |
| 20260509191732 | 88 | 301 | 10.0 | 17.0 | 0.00 | 0.00 | 0.00 | 16 | 1007.4 |
| 20260509191233 | 87 | 287 | 10.0 | 18.0 | 0.00 | 0.00 | 0.00 | 16 | 1007.4 |
| 20260509190732 | 88 | 263 | 10.0 | 24.0 | 0.00 | 0.00 | 0.00 | 16 | 1007.5 |
| 20260509190232 | 87 | 292 | 10.0 | 24.0 | 0.00 | 0.00 | 0.00 | 15 | 1007.6 |
| 20260509185730 | 88 | 220 | 9.0 | 19.0 | 0.00 | 0.00 | 0.00 | 15 | 1007.6 |
| 20260509185229 | 87 | 252 | 10.0 | 16.0 | 0.00 | 0.00 | 0.00 | 15 | 1007.9 |
| 20260509184729 | 87 | 261 | 9.0 | 20.0 | 0.00 | 0.00 | 0.00 | 16 | 1007.9 |
| 20260509184228 | 87 | 274 | 9.0 | 20.0 | 0.00 | 0.00 | 0.00 | 16 | 1007.9 |
| 20260509183730 | 87 | 310 | 10.0 | 18.0 | 0.00 | 0.00 | 0.00 | 17 | 1008.0 |
| 20260509183228 | 87 | 265 | 9.0 | 18.0 | 0.00 | 0.00 | 0.00 | 16 | 1008.1 |
| 20260509182727 | 87 | 257 | 8.0 | 17.0 | 0.00 | 0.00 | 0.00 | 17 | 1008.1 |
| 20260509182458 | 86 | 240 | 8.0 | 17.0 | 0.00 | 0.00 | 0.00 | 17 | 1008.2 |
| 20260509181726 | 87 | 291 | 8.0 | 16.0 | 0.00 | 0.00 | 0.00 | 17 | 1008.4 |
| 20260509181228 | 86 | 250 | 7.0 | 16.0 | 0.00 | 0.00 | 0.00 | 18 | 1008.5 |
| 20260509180722 | 85 | 307 | 8.0 | 14.0 | 0.00 | 0.00 | 0.00 | 20 | 1008.6 |
| 20260509180221 | 84 | 252 | 9.0 | 18.0 | 0.00 | 0.00 | 0.00 | 20 | 1008.9 |
| 20260509180217 | 85 | 0 | 8.0 | 14.0 | 0.00 | 0.00 | 0.00 | 20 | 1008.8 |
| 20260509175216 | 84 | 200 | 11.0 | 20.0 | 0.00 | 0.00 | 0.00 | 20 | 1009.1 |
| 20260509174712 | 83 | 206 | 11.0 | 22.0 | 0.00 | 0.00 | 0.00 | 21 | 1009.2 |
| 20260509174213 | 83 | 236 | 9.0 | 22.0 | 0.00 | 0.00 | 0.00 | 21 | 1009.3 |
| 20260509173712 | 83 | 206 | 9.0 | 17.0 | 0.00 | 0.00 | 0.00 | 23 | 1009.3 |
| 20260509173443 | 82 | 235 | 11.0 | 20.0 | 0.00 | 0.00 | 0.00 | 24 | 1009.5 |
| 20260509172710 | 82 | 226 | 10.0 | 20.0 | 0.00 | 0.00 | 0.00 | 25 | 1009.5 |
| 20260509172211 | 82 | 219 | 7.0 | 17.0 | 0.00 | 0.00 | 0.00 | 25 | 1009.6 |
| 20260509171942 | 81 | 226 | 7.0 | 16.0 | 0.00 | 0.00 | 0.00 | 28 | 1009.8 |
| 20260509171215 | 80 | 252 | 7.0 | 21.0 | 0.00 | 0.00 | 0.00 | 29 | 1009.8 |
| 20260509171211 | 81 | 248 | 8.0 | 17.0 | 0.00 | 0.00 | 0.00 | 28 | 1009.9 |
| 20260509170438 | 80 | 205 | 8.0 | 21.0 | 0.00 | 0.00 | 0.00 | 27 | 1009.9 |
| 20260509165704 | 80 | 207 | 9.0 | 19.0 | 0.00 | 0.00 | 0.00 | 28 | 1010.0 |
| 20260509165202 | 79 | 243 | 9.0 | 16.0 | 0.00 | 0.00 | 0.00 | 29 | 1010.1 |
| 20260509164933 | 79 | 237 | 9.0 | 16.0 | 0.00 | 0.00 | 0.00 | 30 | 1010.2 |
| 20260509164203 | 79 | 243 | 9.0 | 16.0 | 0.00 | 0.00 | 0.00 | 29 | 1010.2 |
| 20260509163702 | 78 | 232 | 9.0 | 16.0 | 0.00 | 0.00 | 0.00 | 32 | 1010.1 |
| 20260509163200 | 78 | 194 | 9.0 | 19.0 | 0.00 | 0.00 | 0.00 | 31 | 1010.4 |
| 20260509162700 | 78 | 205 | 11.0 | 19.0 | 0.00 | 0.00 | 0.00 | 32 | 1010.4 |
| 20260509162159 | 78 | 231 | 11.0 | 19.0 | 0.00 | 0.00 | 0.00 | 33 | 1010.4 |
| 20260509161656 | 77 | 180 | 11.0 | 20.0 | 0.00 | 0.00 | 0.00 | 33 | 1010.4 |
| 20260509161157 | 77 | 164 | 11.0 | 20.0 | 0.00 | 0.00 | 0.00 | 34 | 1010.5 |
| 20260509160658 | 77 | 214 | 12.0 | 20.0 | 0.00 | 0.00 | 0.00 | 35 | 1010.5 |
| 20260509160156 | 76 | 201 | 13.0 | 20.0 | 0.00 | 0.00 | 0.00 | 35 | 1010.5 |
| 20260509155656 | 76 | 148 | 13.0 | 19.0 | 0.00 | 0.00 | 0.00 | 36 | 1010.5 |
| 20260509155157 | 76 | 212 | 13.0 | 19.0 | 0.00 | 0.00 | 0.00 | 35 | 1010.5 |
| 20260509154657 | 76 | 213 | 12.0 | 19.0 | 0.00 | 0.00 | 0.00 | 34 | 1010.6 |
| 20260509154425 | 76 | 181 | 11.0 | 18.0 | 0.00 | 0.00 | 0.00 | 35 | 1010.7 |
| 20260509153654 | 76 | 202 | 10.0 | 18.0 | 0.00 | 0.00 | 0.00 | 36 | 1010.7 |
| 20260509153152 | 75 | 171 | 10.0 | 18.0 | 0.00 | 0.00 | 0.00 | 38 | 1010.8 |
| 20260509152651 | 75 | 179 | 11.0 | 17.0 | 0.00 | 0.00 | 0.00 | 39 | 1010.9 |
| 20260509152150 | 74 | 131 | 10.0 | 17.0 | 0.00 | 0.00 | 0.00 | 40 | 1010.9 |
| 20260509151650 | 73 | 216 | 8.0 | 15.0 | 0.00 | 0.00 | 0.00 | 42 | 1011.0 |
| 20260509151421 | 73 | 187 | 8.0 | 14.0 | 0.00 | 0.00 | 0.00 | 46 | 1011.1 |
| 20260509150648 | 72 | 151 | 7.0 | 14.0 | 0.00 | 0.00 | 0.00 | 48 | 1011.1 |
| 20260509150148 | 71 | 176 | 7.0 | 10.0 | 0.00 | 0.00 | 0.00 | 50 | 1011.2 |
| 20260509145646 | 70 | 172 | 7.0 | 11.0 | 0.00 | 0.00 | 0.00 | 51 | 1011.3 |
| 20260509145147 | 69 | 190 | 6.0 | 11.0 | 0.00 | 0.00 | 0.00 | 52 | 1011.4 |
| 20260509144646 | 68 | 184 | 7.0 | 12.0 | 0.00 | 0.00 | 0.00 | 53 | 1011.5 |
| 20260509144146 | 67 | 178 | 7.0 | 12.0 | 0.00 | 0.00 | 0.00 | 52 | 1011.6 |
| 20260509143646 | 67 | 204 | 8.0 | 12.0 | 0.00 | 0.00 | 0.00 | 52 | 1011.7 |
| 20260509143146 | 67 | 205 | 7.0 | 13.0 | 0.00 | 0.00 | 0.00 | 53 | 1011.7 |
| 20260509142646 | 66 | 160 | 4.0 | 13.0 | 0.00 | 0.00 | 0.00 | 54 | 1011.8 |
| 20260509142144 | 65 | 129 | 1.0 | 7.0 | 0.00 | 0.00 | 0.00 | 50 | 1011.8 |
| 20260509141909 | 64 | 213 | 1.0 | 5.0 | 0.00 | 0.00 | 0.00 | 48 | 1011.9 |
| 20260509141138 | 64 | 177 | 1.0 | 4.0 | 0.00 | 0.00 | 0.00 | 47 | 1012.0 |
| 20260509140630 | 64 | 179 | 1.0 | 4.0 | 0.00 | 0.00 | 0.00 | 46 | 1012.0 |
| 20260509140402 | 64 | 183 | 0.0 | 1.0 | 0.00 | 0.00 | 0.00 | 46 | 1012.1 |
| 20260509135628 | 63 | 146 | 0.0 | 0.0 | 0.00 | 0.00 | 0.00 | 46 | 1012.1 |
| 20260509135113 | 63 | 146 | 0.0 | 0.0 | 0.00 | 0.00 | 0.00 | 44 | 1012.1 |
| 20260509134543 | 62 | 146 | 0.0 | 0.0 | 0.00 | 0.00 | 0.00 | 44 | 1012.1 |
| 20260509134042 | 61 | 179 | 0.0 | 1.0 | 0.00 | 0.00 | 0.00 | 45 | 1012.1 |
| 20260509133518 | 61 | 181 | 0.0 | 1.0 | 0.00 | 0.00 | 0.00 | 45 | 1012.1 |
| 20260509133251 | 60 | 1 | 0.0 | 0.0 | 0.00 | 0.00 | 0.00 | 47 | 1012.0 |
| 20260509132452 | 59 | 1 | 0.0 | 0.0 | 0.00 | 0.00 | 0.00 | 48 | 1011.9 |
| 20260509131953 | 58 | 1 | 0.0 | 0.0 | 0.00 | 0.00 | 0.00 | 49 | 1012.0 |
| 20260509131440 | 56 | 1 | 0.0 | 0.0 | 0.00 | 0.00 | 0.00 | 49 | 1011.9 |
| 20260509130940 | 56 | 1 | 0.0 | 0.0 | 0.00 | 0.00 | 0.00 | 51 | 1011.9 |
| 20260509130713 | 55 | 1 | 0.0 | 0.0 | 0.00 | 0.00 | 0.00 | 52 | 1011.8 |
| 20260509125934 | 54 | 1 | 0.0 | 0.0 | 0.00 | 0.00 | 0.00 | 52 | 1011.9 |
| 20260509125436 | 53 | 1 | 0.0 | 0.0 | 0.00 | 0.00 | 0.00 | 53 | 1011.9 |
| 20260509124916 | 52 | 1 | 0.0 | 0.0 | 0.00 | 0.00 | 0.00 | 54 | 1011.9 |
| 20260509124417 | 51 | 1 | 0.0 | 0.0 | 0.00 | 0.00 | 0.00 | 55 | 1011.8 |
| 20260509123858 | 51 | 1 | 0.0 | 0.0 | 0.00 | 0.00 | 0.00 | 56 | 1011.8 |
| 20260509123353 | 51 | 1 | 0.0 | 0.0 | 0.00 | 0.00 | 0.00 | 56 | 1011.7 |
| 20260509122852 | 50 | 1 | 0.0 | 0.0 | 0.00 | 0.00 | 0.00 | 57 | 1011.7 |
| 20260509122352 | 49 | 1 | 0.0 | 0.0 | 0.00 | 0.00 | 0.00 | 58 | 1011.8 |
| 20260509121848 | 49 | 1 | 0.0 | 0.0 | 0.00 | 0.00 | 0.00 | 57 | 1011.6 |
| 20260509121346 | 49 | 1 | 0.0 | 0.0 | 0.00 | 0.00 | 0.00 | 57 | 1011.7 |
| 20260509120845 | 49 | 1 | 0.0 | 0.0 | 0.00 | 0.00 | 0.00 | 57 | 1011.7 |
| 20260509120323 | 49 | 1 | 0.0 | 0.0 | 0.00 | 0.00 | 0.00 | 57 | 1011.7 |
| 20260509115758 | 49 | 1 | 0.0 | 1.0 | 0.00 | 0.00 | 0.00 | 57 | 1011.6 |
| 20260509115258 | 49 | 1 | 0.0 | 1.0 | 0.00 | 0.00 | 0.00 | 57 | 1011.6 |
| 20260509114756 | 49 | 4 | 0.0 | 1.0 | 0.00 | 0.00 | 0.00 | 58 | 1011.6 |
| 20260509114243 | 48 | 359 | 0.0 | 1.0 | 0.00 | 0.00 | 0.00 | 59 | 1011.6 |
| 20260509113742 | 48 | 345 | 0.0 | 1.0 | 0.00 | 0.00 | 0.00 | 59 | 1011.7 |
| 20260509113236 | 48 | 345 | 0.0 | 2.0 | 0.00 | 0.00 | 0.00 | 58 | 1011.7 |
| 20260509112732 | 48 | 303 | 0.0 | 2.0 | 0.00 | 0.00 | 0.00 | 58 | 1011.8 |
| 20260509112211 | 48 | 308 | 1.0 | 3.0 | 0.00 | 0.00 | 0.00 | 58 | 1011.7 |
| 20260509111936 | 48 | 297 | 2.0 | 4.0 | 0.00 | 0.00 | 0.00 | 57 | 1011.7 |
| 20260509111156 | 48 | 316 | 1.0 | 4.0 | 0.00 | 0.00 | 0.00 | 57 | 1011.7 |
| 20260509110654 | 49 | 299 | 0.0 | 2.0 | 0.00 | 0.00 | 0.00 | 56 | 1011.6 |
| 20260509110426 | 49 | 321 | 0.0 | 3.0 | 0.00 | 0.00 | 0.00 | 56 | 1011.6 |
| 20260509105925 | 49 | 307 | 0.0 | 3.0 | 0.00 | 0.00 | 0.00 | 54 | 1011.7 |
| 20260509105152 | 49 | 288 | 0.0 | 0.0 | 0.00 | 0.00 | 0.00 | 52 | 1011.7 |
| 20260509104649 | 50 | 288 | 0.0 | 1.0 | 0.00 | 0.00 | 0.00 | 52 | 1011.7 |
| 20260509104139 | 50 | 288 | 0.0 | 1.0 | 0.00 | 0.00 | 0.00 | 51 | 1011.7 |
| 20260509103853 | 51 | 300 | 0.0 | 1.0 | 0.00 | 0.00 | 0.00 | 51 | 1011.9 |
| 20260509103124 | 52 | 44 | 0.0 | 0.0 | 0.00 | 0.00 | 0.00 | 51 | 1011.8 |
| 20260509102556 | 52 | 44 | 0.0 | 0.0 | 0.00 | 0.00 | 0.00 | 50 | 1011.8 |
| 20260509102049 | 52 | 44 | 0.0 | 0.0 | 0.00 | 0.00 | 0.00 | 49 | 1011.8 |
| 20260509101517 | 53 | 44 | 0.0 | 0.0 | 0.00 | 0.00 | 0.00 | 49 | 1011.9 |
| 20260509101236 | 54 | 44 | 0.0 | 0.0 | 0.00 | 0.00 | 0.00 | 48 | 1011.9 |
| 20260509100458 | 55 | 44 | 0.0 | 0.0 | 0.00 | 0.00 | 0.00 | 46 | 1012.0 |
| 20260509095955 | 56 | 105 | 0.0 | 3.0 | 0.00 | 0.00 | 0.00 | 47 | 1012.0 |
| 20260509095442 | 56 | 105 | 0.0 | 3.0 | 0.00 | 0.00 | 0.00 | 48 | 1012.0 |
| 20260509094936 | 56 | 197 | 0.0 | 1.0 | 0.00 | 0.00 | 0.00 | 48 | 1011.9 |
| 20260509094657 | 56 | 198 | 0.0 | 1.0 | 0.00 | 0.00 | 0.00 | 48 | 1012.0 |
| 20260509093849 | 56 | 198 | 0.0 | 2.0 | 0.00 | 0.00 | 0.00 | 48 | 1011.9 |
| 20260509093347 | 56 | 198 | 0.0 | 3.0 | 0.00 | 0.00 | 0.00 | 47 | 1011.9 |
| 20260509092834 | 56 | 176 | 1.0 | 3.0 | 0.00 | 0.00 | 0.00 | 47 | 1012.0 |
| 20260509092324 | 56 | 207 | 1.0 | 3.0 | 0.00 | 0.00 | 0.00 | 47 | 1012.1 |
| 20260509091819 | 56 | 207 | 1.0 | 5.0 | 0.00 | 0.00 | 0.00 | 47 | 1011.9 |
| 20260509091257 | 56 | 227 | 1.0 | 5.0 | 0.00 | 0.00 | 0.00 | 47 | 1012.0 |
| 20260509090756 | 57 | 221 | 1.0 | 4.0 | 0.00 | 0.00 | 0.00 | 47 | 1012.0 |
| 20260509090256 | 57 | 117 | 1.0 | 4.0 | 0.00 | 0.00 | 0.00 | 48 | 1011.9 |
| 20260509085756 | 56 | 128 | 0.0 | 3.0 | 0.00 | 0.00 | 0.00 | 48 | 1012.0 |
| 20260509085257 | 56 | 129 | 0.0 | 1.0 | 0.00 | 0.00 | 0.00 | 46 | 1011.8 |
| 20260509085020 | 57 | 130 | 0.0 | 1.0 | 0.00 | 0.00 | 0.00 | 46 | 1011.8 |
| 20260509084245 | 57 | 150 | 0.0 | 1.0 | 0.00 | 0.00 | 0.00 | 46 | 1011.8 |
| 20260509083718 | 57 | 154 | 1.0 | 4.0 | 0.00 | 0.00 | 0.00 | 46 | 1011.7 |
| 20260509083449 | 57 | 157 | 1.0 | 4.0 | 0.00 | 0.00 | 0.00 | 46 | 1011.8 |
| 20260509083323 | 57 | 155 | 1.0 | 4.0 | 0.00 | 0.00 | 0.00 | 45 | 1011.6 |
| 20260509082214 | 58 | 137 | 1.0 | 4.0 | 0.00 | 0.00 | 0.00 | 45 | 1011.6 |
| 20260509081949 | 58 | 102 | 2.0 | 6.0 | 0.00 | 0.00 | 0.00 | 44 | 1011.5 |
| 20260509081714 | 58 | 102 | 1.0 | 3.0 | 0.00 | 0.00 | 0.00 | 45 | 1011.6 |
| 20260509080705 | 58 | 102 | 3.0 | 6.0 | 0.00 | 0.00 | 0.00 | 44 | 1011.6 |
| 20260509080205 | 59 | 114 | 3.0 | 7.0 | 0.00 | 0.00 | 0.00 | 44 | 1011.7 |
| 20260509075934 | 59 | 102 | 3.0 | 7.0 | 0.00 | 0.00 | 0.00 | 43 | 1011.8 |
| 20260509075205 | 59 | 100 | 3.0 | 6.0 | 0.00 | 0.00 | 0.00 | 42 | 1011.7 |
| 20260509074704 | 60 | 79 | 4.0 | 7.0 | 0.00 | 0.00 | 0.00 | 42 | 1011.7 |
| 20260509074434 | 60 | 103 | 4.0 | 7.0 | 0.00 | 0.00 | 0.00 | 41 | 1011.7 |
| 20260509073705 | 60 | 84 | 4.0 | 7.0 | 0.00 | 0.00 | 0.00 | 41 | 1011.6 |
| 20260509073157 | 60 | 88 | 4.0 | 7.0 | 0.00 | 0.00 | 0.00 | 41 | 1011.7 |
| 20260509072659 | 60 | 89 | 4.0 | 8.0 | 0.00 | 0.00 | 0.00 | 40 | 1011.7 |
| 20260509072155 | 61 | 95 | 3.0 | 8.0 | 0.00 | 0.00 | 0.00 | 39 | 1011.7 |
| 20260509071655 | 61 | 101 | 3.0 | 8.0 | 0.00 | 0.00 | 0.00 | 39 | 1011.7 |
| 20260509071156 | 61 | 88 | 4.0 | 8.0 | 0.00 | 0.00 | 0.00 | 39 | 1011.6 |
| 20260509070655 | 61 | 94 | 5.0 | 10.0 | 0.00 | 0.00 | 0.00 | 39 | 1011.5 |
| 20260509070153 | 62 | 98 | 5.0 | 10.0 | 0.00 | 0.00 | 0.00 | 39 | 1011.5 |
| 20260509065924 | 61 | 90 | 3.0 | 8.0 | 0.00 | 0.00 | 0.00 | 39 | 1011.2 |
| 20260509065153 | 61 | 89 | 3.0 | 6.0 | 0.00 | 0.00 | 0.00 | 39 | 1011.2 |
| 20260509064651 | 61 | 72 | 3.0 | 6.0 | 0.00 | 0.00 | 0.00 | 39 | 1011.1 |
| 20260509064152 | 60 | 120 | 1.0 | 5.0 | 0.00 | 0.00 | 0.00 | 39 | 1011.2 |
| 20260509063652 | 60 | 85 | 0.0 | 3.0 | 0.00 | 0.00 | 0.00 | 39 | 1011.1 |
| 20260509063149 | 60 | 56 | 1.0 | 3.0 | 0.00 | 0.00 | 0.00 | 39 | 1010.9 |
| 20260509062649 | 60 | 58 | 2.0 | 4.0 | 0.00 | 0.00 | 0.00 | 39 | 1011.1 |
| 20260509062150 | 60 | 52 | 2.0 | 4.0 | 0.00 | 0.00 | 0.00 | 38 | 1011.0 |
| 20260509061650 | 61 | 68 | 2.0 | 5.0 | 0.00 | 0.00 | 0.00 | 37 | 1011.0 |
| 20260509061417 | 62 | 58 | 5.0 | 10.0 | 0.00 | 0.00 | 0.00 | 36 | 1010.8 |
| 20260509060647 | 62 | 61 | 5.0 | 10.0 | 0.00 | 0.00 | 0.00 | 37 | 1010.8 |
| 20260509060416 | 63 | 108 | 5.0 | 10.0 | 0.00 | 0.00 | 0.00 | 36 | 1010.7 |
| 20260509055648 | 63 | 107 | 8.0 | 12.0 | 0.00 | 0.00 | 0.00 | 36 | 1010.7 |
| 20260509055643 | 63 | 58 | 7.0 | 12.0 | 0.00 | 0.00 | 0.00 | 36 | 1010.7 |
| 20260509054643 | 62 | 91 | 7.0 | 11.0 | 0.00 | 0.00 | 0.00 | 37 | 1010.8 |
| 20260509054141 | 62 | 72 | 5.0 | 10.0 | 0.00 | 0.00 | 0.00 | 36 | 1010.8 |
| 20260509053642 | 62 | 117 | 4.0 | 9.0 | 0.00 | 0.00 | 0.00 | 36 | 1010.9 |
| 20260509053141 | 63 | 110 | 6.0 | 9.0 | 0.00 | 0.00 | 0.00 | 36 | 1010.8 |
| 20260509052639 | 63 | 94 | 6.0 | 11.0 | 0.00 | 0.00 | 0.00 | 36 | 1010.9 |
| 20260509052139 | 64 | 99 | 5.0 | 11.0 | 0.00 | 0.00 | 0.00 | 35 | 1010.8 |
| 20260509051640 | 63 | 111 | 4.0 | 7.0 | 0.00 | 0.00 | 0.00 | 36 | 1010.8 |
| 20260509051139 | 62 | 60 | 4.0 | 8.0 | 0.00 | 0.00 | 0.00 | 36 | 1010.8 |
| 20260509050910 | 62 | 60 | 4.0 | 8.0 | 0.00 | 0.00 | 0.00 | 36 | 1010.7 |
| 20260509050139 | 63 | 67 | 4.0 | 8.0 | 0.00 | 0.00 | 0.00 | 35 | 1010.8 |
| 20260509045908 | 63 | 56 | 4.0 | 7.0 | 0.00 | 0.00 | 0.00 | 35 | 1010.9 |
| 20260509045138 | 63 | 58 | 5.0 | 7.0 | 0.00 | 0.00 | 0.00 | 35 | 1010.9 |
| 20260509044637 | 63 | 47 | 5.0 | 7.0 | 0.00 | 0.00 | 0.00 | 34 | 1011.0 |
| 20260509044408 | 64 | 42 | 5.0 | 8.0 | 0.00 | 0.00 | 0.00 | 34 | 1011.0 |
| 20260509043639 | 64 | 21 | 6.0 | 9.0 | 0.00 | 0.00 | 0.00 | 34 | 1011.0 |
| 20260509043134 | 64 | 107 | 6.0 | 9.0 | 0.00 | 0.00 | 0.00 | 34 | 1011.2 |
| 20260509042633 | 65 | 92 | 7.0 | 10.0 | 0.00 | 0.00 | 0.00 | 33 | 1011.0 |
| 20260509042134 | 66 | 72 | 6.0 | 11.0 | 0.00 | 0.00 | 0.00 | 32 | 1011.1 |
| 20260509041906 | 66 | 97 | 5.0 | 11.0 | 0.00 | 0.00 | 0.00 | 32 | 1011.1 |
| 20260509041134 | 66 | 91 | 5.0 | 9.0 | 0.00 | 0.00 | 0.00 | 32 | 1011.0 |
| 20260509040633 | 66 | 101 | 6.0 | 10.0 | 0.00 | 0.00 | 0.00 | 32 | 1011.1 |
| 20260509040131 | 66 | 68 | 6.0 | 10.0 | 0.00 | 0.00 | 0.00 | 32 | 1011.2 |
| 20260509035629 | 66 | 94 | 7.0 | 11.0 | 0.00 | 0.00 | 0.00 | 32 | 1011.2 |
| 20260509035132 | 67 | 107 | 7.0 | 11.0 | 0.00 | 0.00 | 0.00 | 31 | 1011.2 |
| 20260509034628 | 67 | 91 | 7.0 | 10.0 | 0.00 | 0.00 | 0.00 | 31 | 1011.1 |
| 20260509034127 | 67 | 99 | 6.0 | 10.0 | 0.00 | 0.00 | 0.00 | 31 | 1011.1 |
| 20260509033629 | 66 | 107 | 4.0 | 10.0 | 0.00 | 0.00 | 0.00 | 31 | 1011.2 |
| 20260509033128 | 66 | 115 | 3.0 | 6.0 | 0.00 | 0.00 | 0.00 | 32 | 1011.1 |
| 20260509032628 | 67 | 109 | 4.0 | 6.0 | 0.00 | 0.00 | 0.00 | 31 | 1011.1 |
| 20260509032127 | 67 | 101 | 4.0 | 7.0 | 0.00 | 0.00 | 0.00 | 31 | 1011.0 |
| 20260509031623 | 67 | 89 | 4.0 | 7.0 | 0.00 | 0.00 | 0.00 | 30 | 1010.9 |
| 20260509031123 | 68 | 113 | 4.0 | 7.0 | 0.00 | 0.00 | 0.00 | 30 | 1010.8 |
| 20260509030624 | 69 | 97 | 4.0 | 9.0 | 0.00 | 0.00 | 0.00 | 29 | 1010.8 |
| 20260509030124 | 69 | 103 | 3.0 | 9.0 | 0.00 | 0.00 | 0.00 | 29 | 1010.7 |
| 20260509025621 | 70 | 71 | 4.0 | 8.0 | 0.00 | 0.00 | 0.00 | 28 | 1010.7 |
| 20260509025122 | 70 | 65 | 3.0 | 8.0 | 0.00 | 0.00 | 0.00 | 28 | 1010.7 |
| 20260509024621 | 71 | 55 | 3.0 | 5.0 | 0.00 | 0.00 | 0.00 | 28 | 1010.5 |
| 20260509024122 | 71 | 55 | 3.0 | 6.0 | 0.00 | 0.00 | 0.00 | 28 | 1010.5 |
| 20260509023622 | 71 | 53 | 3.0 | 6.0 | 0.00 | 0.00 | 0.00 | 27 | 1010.4 |
| 20260509023121 | 72 | 63 | 3.0 | 6.0 | 0.00 | 0.00 | 0.00 | 27 | 1010.3 |
| 20260509022848 | 72 | 71 | 2.0 | 5.0 | 0.00 | 0.00 | 0.00 | 27 | 1010.3 |
| 20260509022118 | 72 | 59 | 2.0 | 6.0 | 0.00 | 0.00 | 0.00 | 27 | 1010.2 |
| 20260509021619 | 73 | 67 | 3.0 | 7.0 | 0.00 | 0.00 | 0.00 | 26 | 1010.1 |
| 20260509021117 | 73 | 60 | 3.0 | 7.0 | 0.00 | 0.00 | 0.00 | 26 | 1010.0 |
| 20260509020615 | 74 | 58 | 3.0 | 9.0 | 0.00 | 0.00 | 0.00 | 26 | 1009.9 |
| 20260509020116 | 74 | 91 | 4.0 | 9.0 | 0.00 | 0.00 | 0.00 | 26 | 1009.9 |
| 20260509015615 | 75 | 96 | 4.0 | 9.0 | 0.00 | 0.00 | 0.00 | 25 | 1009.8 |
| 20260509015115 | 75 | 66 | 5.0 | 10.0 | 0.00 | 0.00 | 0.00 | 25 | 1009.7 |
| 20260509014614 | 76 | 83 | 6.0 | 12.0 | 0.00 | 0.00 | 0.00 | 25 | 1009.6 |
| 20260509014347 | 76 | 50 | 6.0 | 12.0 | 0.00 | 0.00 | 0.00 | 25 | 1009.6 |
| 20260509013612 | 76 | 33 | 5.0 | 8.0 | 0.00 | 0.00 | 0.00 | 24 | 1009.5 |
| 20260509013111 | 77 | 40 | 6.0 | 11.0 | 0.00 | 0.00 | 0.00 | 23 | 1009.5 |
| 20260509012612 | 77 | 49 | 6.0 | 11.0 | 0.00 | 0.00 | 0.00 | 23 | 1009.5 |
| 20260509012111 | 78 | 49 | 5.0 | 10.0 | 0.00 | 0.00 | 0.00 | 22 | 1009.5 |
| 20260509011609 | 78 | 21 | 6.0 | 11.0 | 0.00 | 0.00 | 0.00 | 22 | 1009.5 |
| 20260509011108 | 78 | 35 | 8.0 | 13.0 | 0.00 | 0.00 | 0.00 | 22 | 1009.4 |
| 20260509010609 | 78 | 46 | 9.0 | 13.0 | 0.00 | 0.00 | 0.00 | 22 | 1009.4 |
| 20260509010107 | 79 | 22 | 9.0 | 13.0 | 0.00 | 0.00 | 0.00 | 22 | 1009.3 |
| 20260509005608 | 79 | 36 | 8.0 | 14.0 | 0.00 | 0.00 | 0.00 | 21 | 1009.4 |
| 20260509005108 | 79 | 25 | 8.0 | 14.0 | 0.00 | 0.00 | 0.00 | 21 | 1009.3 |
| 20260509004605 | 80 | 37 | 8.0 | 14.0 | 0.00 | 0.00 | 0.00 | 21 | 1009.2 |
| 20260509004105 | 80 | 24 | 9.0 | 12.0 | 0.00 | 0.00 | 0.00 | 20 | 1009.2 |
| 20260509003835 | 80 | 32 | 9.0 | 12.0 | 0.00 | 0.00 | 0.00 | 20 | 1009.2 |
| 20260509003101 | 80 | 9 | 8.0 | 12.0 | 0.00 | 0.00 | 0.00 | 20 | 1009.1 |
| 20260509002600 | 80 | 40 | 9.0 | 14.0 | 0.00 | 0.00 | 0.00 | 21 | 1009.2 |
| 20260509002101 | 80 | 25 | 9.0 | 16.0 | 0.00 | 0.00 | 0.00 | 21 | 1009.1 |
| 20260509001557 | 81 | 25 | 8.0 | 16.0 | 0.00 | 0.00 | 0.00 | 20 | 1009.1 |
| 20260509001058 | 81 | 14 | 8.0 | 13.0 | 0.00 | 0.00 | 0.00 | 20 | 1009.0 |
| 20260509000558 | 81 | 6 | 8.0 | 13.0 | 0.00 | 0.00 | 0.00 | 20 | 1009.0 |
| 20260509000055 | 81 | 44 | 9.0 | 13.0 | 0.00 | 0.00 | 0.00 | 20 | 1009.0 |
| 20260508235555 | 81 | 23 | 8.0 | 13.0 | 0.00 | 0.00 | 0.00 | 20 | 1009.0 |
| 20260508235055 | 81 | 41 | 8.0 | 13.0 | 0.00 | 0.00 | 0.00 | 20 | 1009.0 |
| 20260508234554 | 81 | 48 | 10.0 | 14.0 | 0.00 | 0.00 | 0.00 | 20 | 1009.0 |
| 20260508234053 | 81 | 51 | 10.0 | 19.0 | 0.00 | 0.00 | 0.00 | 20 | 1009.0 |
| 20260508233553 | 81 | 25 | 10.0 | 19.0 | 0.00 | 0.00 | 0.00 | 20 | 1008.9 |
| 20260508233051 | 81 | 17 | 11.0 | 18.0 | 0.00 | 0.00 | 0.00 | 20 | 1008.9 |
| 20260508232551 | 81 | 20 | 12.0 | 18.0 | 0.00 | 0.00 | 0.00 | 21 | 1009.0 |
| 20260508232050 | 81 | 25 | 11.0 | 17.0 | 0.00 | 0.00 | 0.00 | 20 | 1009.0 |
| 20260508231549 | 82 | 34 | 9.0 | 15.0 | 0.00 | 0.00 | 0.00 | 19 | 1008.9 |
| 20260508231049 | 82 | 23 | 10.0 | 15.0 | 0.00 | 0.00 | 0.00 | 20 | 1008.9 |
| 20260508230550 | 81 | 28 | 12.0 | 20.0 | 0.00 | 0.00 | 0.00 | 20 | 1008.9 |
| 20260508230047 | 81 | 30 | 12.0 | 20.0 | 0.00 | 0.00 | 0.00 | 20 | 1008.9 |
| 20260508225548 | 82 | 17 | 12.0 | 18.0 | 0.00 | 0.00 | 0.00 | 20 | 1008.9 |
| 20260508225318 | 82 | 6 | 11.0 | 19.0 | 0.00 | 0.00 | 0.00 | 19 | 1008.9 |
| 20260508225153 | 83 | 6 | 8.0 | 19.0 | 0.00 | 0.00 | 0.00 | 19 | 1008.7 |
| 20260508224045 | 82 | 5 | 10.0 | 20.0 | 0.00 | 0.00 | 0.00 | 19 | 1008.8 |
| 20260508223545 | 82 | 41 | 12.0 | 20.0 | 0.00 | 0.00 | 0.00 | 19 | 1008.9 |
| 20260508223043 | 81 | 37 | 12.0 | 20.0 | 0.00 | 0.00 | 0.00 | 19 | 1008.8 |
| 20260508222544 | 82 | 27 | 10.0 | 20.0 | 0.00 | 0.00 | 0.00 | 19 | 1008.8 |
| 20260508222041 | 82 | 12 | 9.0 | 15.0 | 0.00 | 0.00 | 0.00 | 19 | 1008.8 |
| 20260508221541 | 82 | 20 | 12.0 | 21.0 | 0.00 | 0.00 | 0.00 | 19 | 1008.8 |
| 20260508221312 | 83 | 352 | 11.0 | 21.0 | 0.00 | 0.00 | 0.00 | 18 | 1009.0 |
| 20260508220538 | 83 | 14 | 9.0 | 16.0 | 0.00 | 0.00 | 0.00 | 18 | 1008.9 |
| 20260508220038 | 82 | 21 | 10.0 | 19.0 | 0.00 | 0.00 | 0.00 | 18 | 1009.0 |
| 20260508215533 | 82 | 12 | 12.0 | 19.0 | 0.00 | 0.00 | 0.00 | 18 | 1009.0 |
| 20260508215306 | 82 | 334 | 13.0 | 23.0 | 0.00 | 0.00 | 0.00 | 18 | 1009.0 |
| 20260508214533 | 83 | 6 | 13.0 | 23.0 | 0.00 | 0.00 | 0.00 | 18 | 1009.0 |
| 20260508214031 | 83 | 7 | 11.0 | 20.0 | 0.00 | 0.00 | 0.00 | 18 | 1009.0 |
| 20260508213528 | 83 | 32 | 10.0 | 17.0 | 0.00 | 0.00 | 0.00 | 18 | 1008.9 |
| 20260508213033 | 83 | 0 | 13.0 | 22.0 | 0.00 | 0.00 | 0.00 | 17 | 1009.0 |
| 20260508213029 | 83 | 32 | 11.0 | 19.0 | 0.00 | 0.00 | 0.00 | 17 | 1009.0 |
| 20260508212634 | 84 | 359 | 12.0 | 22.0 | 0.00 | 0.00 | 0.00 | 17 | 1009.1 |
| 20260508211526 | 83 | 50 | 10.0 | 19.0 | 0.00 | 0.00 | 0.00 | 18 | 1009.1 |
| 20260508211258 | 83 | 32 | 9.0 | 19.0 | 0.00 | 0.00 | 0.00 | 18 | 1009.0 |
| 20260508210527 | 82 | 1 | 11.0 | 16.0 | 0.00 | 0.00 | 0.00 | 18 | 1009.1 |
| 20260508210258 | 83 | 3 | 11.0 | 18.0 | 0.00 | 0.00 | 0.00 | 17 | 1009.3 |
| 20260508205502 | 83 | 355 | 9.0 | 17.0 | 0.00 | 0.00 | 0.00 | 17 | 1009.2 |
| 20260508205001 | 82 | 28 | 9.0 | 16.0 | 0.00 | 0.00 | 0.00 | 18 | 1009.4 |
| 20260508204502 | 83 | 21 | 11.0 | 20.0 | 0.00 | 0.00 | 0.00 | 18 | 1009.4 |
| 20260508203955 | 83 | 1 | 10.0 | 20.0 | 0.00 | 0.00 | 0.00 | 18 | 1009.4 |
| 20260508203455 | 83 | 356 | 7.0 | 14.0 | 0.00 | 0.00 | 0.00 | 18 | 1009.4 |
| 20260508202955 | 82 | 18 | 10.0 | 19.0 | 0.00 | 0.00 | 0.00 | 18 | 1009.5 |
| 20260508202455 | 83 | 7 | 10.0 | 19.0 | 0.00 | 0.00 | 0.00 | 18 | 1009.5 |
| 20260508201954 | 82 | 19 | 10.0 | 19.0 | 0.00 | 0.00 | 0.00 | 19 | 1009.5 |
| 20260508201453 | 81 | 359 | 10.0 | 23.0 | 0.00 | 0.00 | 0.00 | 20 | 1009.5 |
| 20260508200949 | 83 | 11 | 10.0 | 23.0 | 0.00 | 0.00 | 0.00 | 20 | 1009.6 |
| 20260508200447 | 82 | 337 | 11.0 | 19.0 | 0.00 | 0.00 | 0.00 | 20 | 1009.7 |
| 20260508195946 | 82 | 11 | 9.0 | 16.0 | 0.00 | 0.00 | 0.00 | 19 | 1009.9 |
| 20260508195446 | 82 | 11 | 10.0 | 19.0 | 0.00 | 0.00 | 0.00 | 19 | 1009.9 |
| 20260508194945 | 82 | 5 | 11.0 | 19.0 | 0.00 | 0.00 | 0.00 | 19 | 1009.8 |
| 20260508194714 | 82 | 37 | 10.0 | 17.0 | 0.00 | 0.00 | 0.00 | 18 | 1010.0 |
| 20260508193942 | 81 | 40 | 11.0 | 18.0 | 0.00 | 0.00 | 0.00 | 19 | 1009.9 |
| 20260508193443 | 82 | 8 | 11.0 | 18.0 | 0.00 | 0.00 | 0.00 | 19 | 1009.9 |
| 20260508192941 | 82 | 359 | 10.0 | 20.0 | 0.00 | 0.00 | 0.00 | 19 | 1009.9 |
| 20260508192440 | 81 | 359 | 11.0 | 20.0 | 0.00 | 0.00 | 0.00 | 19 | 1009.9 |